This is the latest recevied weather packets stored in our database for station/object AB8Y-13. If no packets are shown the sender has not sent any weather packets the latest 10 day(s).
| Time | Temp. | Humidity | Pressure | Rain* | Wind** | Luminosity | Snow |
|---|---|---|---|---|---|---|---|
| 1777691857 | 4.44° C | 58% | 1017 hPa | 0 mm | - | 0 W/m² | - |
| 1777691555 | 4.44° C | 55% | 1017.2 hPa | 0 mm | - | 0 W/m² | - |
| 1777691253 | 5° C | 56% | 1017.1 hPa | 0 mm | - | 0 W/m² | - |
| 1777690951 | 5° C | 55% | 1017 hPa | 0 mm | - | 0 W/m² | - |
| 1777690648 | 5° C | 59% | 1017 hPa | 0 mm | - | 0 W/m² | - |
| 1777690346 | 5° C | 59% | 1017 hPa | 0 mm | - | 0 W/m² | - |
| 1777690043 | 5° C | 56% | 1016.9 hPa | 0 mm | - | 0 W/m² | - |
| 1777689741 | 5° C | 57% | 1017.1 hPa | 0 mm | - | 0 W/m² | - |
| 1777689439 | 5° C | 54% | 1017 hPa | 0 mm | - | 0 W/m² | - |
| 1777689136 | 5° C | 55% | 1016.9 hPa | 0 mm | - | 0 W/m² | - |
| 1777688834 | 5° C | 56% | 1016.9 hPa | 0 mm | - | 0 W/m² | - |
| 1777688530 | 5° C | 53% | 1016.8 hPa | 0 mm | - | 0 W/m² | - |
| 1777688227 | 5° C | 54% | 1016.7 hPa | 0 mm | - | 0 W/m² | - |
| 1777687924 | 5° C | 55% | 1016.8 hPa | 0 mm | - | 0 W/m² | - |
| 1777687621 | 5° C | 56% | 1016.7 hPa | 0 mm | - | 0 W/m² | - |
| 1777687318 | 5° C | 52% | 1016.8 hPa | 0 mm | - | 0 W/m² | - |
| 1777687017 | 5° C | 54% | 1016.8 hPa | 0 mm | - | 0 W/m² | - |
| 1777686712 | 5° C | 54% | 1016.6 hPa | 0 mm | - | 0 W/m² | - |
| 1777686410 | 5° C | 58% | 1016.7 hPa | 0 mm | - | 0 W/m² | - |
| 1777686107 | 5° C | 56% | 1016.5 hPa | 0 mm | - | 0 W/m² | - |
| 1777685803 | 5° C | 58% | 1016.6 hPa | 0 mm | - | 0 W/m² | - |
| 1777685498 | 4.44° C | 65% | 1016.9 hPa | 0 mm | - | 0 W/m² | - |
| 1777685196 | 5° C | 61% | 1016.8 hPa | 0 mm | - | 0 W/m² | - |
| 1777684894 | 5° C | 63% | 1016.6 hPa | 0 mm | - | 0 W/m² | - |
| 1777684590 | 5° C | 57% | 1016.6 hPa | 0 mm | - | 0 W/m² | - |
* Rain latest hour (hover to see other rain measurements)
** Current wind speed in m/s (hover to see current wind gust speed)